EHI
3 7 10 7 4 3 3 3 2 2 3 4 3 2 1 1 0 0 0 0 0 0 0 0 0 0 0 0 0 0 0 0 0 0 0 0 0 0 0 0 0 0 0
3 8 10 8 6 4 3 3 3 3 3 4 4 4 3 2 1 0 0 0 0 0 0 0 0 0 0 0 0 0 0 0 0 0 0 0 0 0 0 0 0 0 0
3 7 10 9 8 6 4 4 3 3 3 4 4 4 3 2 1 0 0 0 0 0 0 0 0 0 0 0 0 0 0 0 0 0 0 0 0 0 0 0 0 0 0
1 4 7 8 8 6 6 6 5 5 4 4 3 2 1 1 0 0 0 0 0 0 1 1 0 0 0 0 0 0 0 0 0 0 0 0 0 0 0 0 0 0 0
1 2 4 6 6 6 6 7 7 6 6 5 3 1 0 0 0 1 2 1 0 1 2 2 1 0 0 0 0 0 0 0 0 0 0 0 0 0 0 0 0 0 0
2 2 3 4 5 5 6 6 5 4 4 4 2 0 0 0 0 1 2 1 1 2 3 2 1 0 0 0 0 0 0 0 0 0 0 0 0 0 0 0 0 0 0
1 2 3 3 4 4 4 3 2 1 2 2 1 0 0 0 0 0 1 1 1 1 2 1 0 0 0 0 0 0 0 0 0 0 0 0 0 0 0 0 0 0 0
2 2 2 2 2 2 2 2 1 1 1 0 0 1 1 1 0 0 0 0 0 1 1 1 0 0 0 0 0 0 0 0 0 0 0 0 0 0 0 0 0 0 0
5 4 2 1 1 1 1 1 0 0 0 0 1 2 2 1 0 0 0 0 0 0 1 1 0 0 0 0 0 0 0 0 0 0 0 0 0 0 0 0 0 0 0
4 3 2 1 0 0 0 0 0 0 0 0 1 1 1 0 0 0 0 0 0 0 0 1 0 0 0 0 0 0 0 0 0 0 0 0 0 0 0 0 0 0 0
1 1 2 2 1 0 0 0 0 0 0 0 0 0 0 0 0 0 0 0 0 0 0 1 0 0 0 0 0 0 0 0 0 0 0 0 0 0 0 0 0 0 0
1 1 1 2 1 1 1 1 1 1 1 0 0 0 0 0 0 0 0 0 0 0 0 0 0 0 0 0 0 0 0 0 0 0 0 0 0 0 0 0 0 0 0
2 2 1 1 1 1 2 3 4 4 3 2 1 0 0 0 0 1 2 2 1 1 1 0 0 0 0 0 0 0 0 0 0 0 0 0 0 0 0 0 0 0 0
1 1 1 1 1 1 1 2 4 5 5 4 2 1 1 2 1 2 3 3 4 4 3 1 0 0 0 0 0 0 0 0 0 0 0 0 0 0 0 0 0 0 0
0 0 0 0 0 0 0 0 2 3 4 4 3 3 3 3 2 1 2 3 4 5 5 3 1 1 1 1 0 0 0 0 0 0 0 0 0 0 0 0 0 0 0
0 0 0 0 0 0 0 0 0 1 2 3 3 3 3 3 2 1 1 1 1 2 3 3 2 2 2 1 0 0 0 0 0 0 0 0 0 0 0 0 0 0 0
0 0 0 0 0 0 0 0 0 0 1 1 2 2 2 2 1 0 0 0 0 0 1 2 2 2 2 1 0 0 0 0 0 0 0 0 0 0 0 0 0 0 0
0 0 0 0 0 0 0 0 0 0 0 0 1 1 1 1 0 0 0 0 0 0 0 1 2 2 2 2 1 0 0 0 0 0 0 0 0 0 0 0 0 0 0
0 0 0 0 0 0 0 0 0 0 0 0 0 0 0 0 0 0 0 0 0 0 0 1 1 2 2 2 1 0 0 0 0 0 0 0 0 0 0 0 0 0 0
0 0 0 0 0 0 0 0 0 0 0 0 0 0 0 0 0 0 0 0 0 0 0 0 0 0 1 1 1 0 0 0 0 0 0 0 0 0 0 0 0 0 0
0 0 0 0 0 0 0 0 0 0 0 0 0 0 0 0 0 0 0 0 0 0 0 0 0 0 0 0 0 0 0 0 0 0 0 0 0 0 0 0 0 0 0
0 0 0 0 0 0 0 0 0 0 0 0 0 0 0 0 0 0 0 0 0 0 0 0 0 0 0 0 0 0 0 0 0 0 0 0 0 0 0 0 0 0 0
0 0 0 0 0 0 0 0 0 0 0 0 0 0 0 0 0 0 0 0 0 0 0 0 0 0 0 0 0 0 0 0 0 0 0 0 0 0 0 0 0 0 0
0 0 0 0 0 0 0 0 0 0 0 0 0 0 0 0 0 0 0 0 0 0 0 0 0 0 0 0 0 0 0 0 0 0 0 0 0 0 0 0 0 0 0
0 0 0 0 0 0 0 0 0 0 0 0 0 0 0 0 0 0 0 0 0 0 0 0 0 0 0 0 0 0 0 0 0 0 0 0 0 0 0 0 0 0 0
0 0 0 0 0 0 0 0 0 0 0 0 0 0 0 0 0 0 0 0 0 0 0 0 0 0 0 0 0 0 0 0 0 0 0 0 0 0 0 0 0 0 0
Wind_Speed
2 3 4 2 5 6 7 7 7 6 7 7 8 8 8 8 9 9 9 9 9 9 10 10 10 10 10 11 11 11 11 10 11 11 11 10 11 11 10 8 6 10 11
2 2 5 3 4 5 6 7 7 6 6 6 7 8 8 8 8 9 9 8 8 9 9 10 10 10 11 11 10 10 10 11 11 10 9 9 8 9 9 8 7 9 10
2 3 5 5 4 4 4 5 6 6 6 6 7 7 8 8 8 8 8 8 8 8 9 9 10 10 10 10 10 10 10 10 10 7 5 7 9 9 9 8 8 10 10
3 3 4 6 5 4 4 4 4 5 5 6 6 7 7 7 8 8 8 8 8 8 8 8 9 10 10 10 10 10 10 10 8 5 4 6 7 9 8 8 8 9 9
3 4 6 6 6 5 4 3 3 3 3 4 5 6 7 7 7 8 7 8 8 8 8 8 9 10 10 10 10 10 9 9 7 5 5 5 6 8 7 8 8 8 8
4 4 6 6 5 5 5 3 2 1 2 3 4 5 6 7 7 7 7 6 7 8 8 9 9 10 10 10 10 10 9 8 8 5 5 5 6 7 7 7 7 7 7
4 4 6 7 7 5 4 3 3 1 0 1 3 4 6 7 8 7 7 7 7 8 9 9 10 10 10 10 10 10 9 7 6 5 4 5 6 7 7 7 6 7 7
5 4 4 6 6 5 5 4 3 2 1 1 2 4 5 7 8 7 7 7 8 8 9 10 10 10 10 10 10 10 9 8 6 5 5 5 6 6 6 7 6 6 6
5 5 4 3 3 4 5 5 4 3 3 2 2 2 3 5 6 7 8 8 9 8 9 10 10 10 10 10 10 9 9 7 6 4 5 4 5 7 7 7 6 6 6
6 5 5 4 4 3 2 4 4 4 3 3 3 3 3 4 6 7 9 8 9 9 9 10 10 10 10 10 10 9 9 8 8 6 5 5 6 7 8 7 7 7 6
6 6 6 5 5 4 3 2 3 2 3 3 3 3 4 5 7 7 8 7 9 9 10 10 10 10 9 9 9 9 9 7 7 5 5 5 8 8 8 8 8 8 7
6 6 6 6 6 5 4 3 2 3 3 3 3 4 4 4 4 5 6 7 9 9 10 10 10 10 10 8 9 10 7 9 7 5 4 7 9 10 9 9 8 8 8
5 6 6 6 6 5 3 3 3 2 3 3 4 4 4 4 4 4 4 6 8 9 9 9 11 9 9 7 7 9 8 7 5 5 6 9 10 11 10 10 10 9 9
5 6 6 6 6 5 5 4 3 3 3 3 4 4 4 3 4 4 4 5 6 5 7 7 7 9 10 10 10 10 10 7 6 5 5 9 10 11 11 11 11 11 10
4 6 6 7 6 6 5 4 4 4 4 4 4 4 5 4 5 5 4 4 6 6 7 7 8 9 10 10 9 10 10 10 8 7 5 9 10 10 11 11 11 12 12
4 5 6 6 6 6 5 4 4 4 4 4 4 4 5 4 5 5 5 5 5 6 6 7 8 8 7 7 9 10 10 9 9 9 7 8 10 10 11 12 12 12 13
4 5 6 6 6 6 6 5 4 4 4 4 4 4 5 5 5 5 5 5 6 6 7 7 8 7 7 7 8 9 8 9 9 9 8 7 7 10 11 12 12 12 12
4 5 6 5 6 6 6 6 4 4 4 4 4 4 5 5 5 5 5 6 6 6 6 6 7 7 7 7 7 7 7 7 10 9 8 7 7 6 9 11 11 11 12
4 5 6 6 6 6 6 5 5 4 4 4 3 3 4 5 5 5 5 5 6 6 6 6 6 6 7 7 7 6 6 7 8 8 9 9 8 7 7 8 10 10 10
4 5 6 6 6 7 5 4 4 4 3 3 3 4 5 4 4 5 4 5 6 5 6 6 7 6 6 6 6 6 6 7 7 7 8 8 7 8 8 8 8 8 10
4 5 6 6 6 6 5 5 4 4 4 3 3 4 4 5 5 4 4 5 5 5 6 7 6 7 6 5 5 5 5 7 7 6 7 7 7 8 8 8 7 6 6
4 5 6 6 6 6 5 5 4 5 4 4 4 4 4 5 5 4 5 4 5 5 6 6 6 5 5 5 5 4 4 5 6 6 6 7 7 7 8 8 8 8 7
4 4 5 6 6 6 6 5 4 4 4 3 4 3 4 4 4 4 5 4 4 5 5 5 6 7 6 5 5 4 4 5 3 5 8 7 7 6 7 7 9 9 8
4 4 5 5 6 5 5 5 6 5 5 5 4 4 4 4 5 4 5 5 5 4 5 5 6 5 6 5 5 5 4 2 3 4 5 6 7 7 7 6 8 8 8
3 4 4 5 5 5 5 5 6 5 5 4 4 5 4 4 4 4 4 4 5 4 5 5 6 6 5 6 5 4 5 4 5 5 5 5 5 6 6 7 6 6 7
3 3 4 4 5 5 5 5 5 6 6 6 5 5 4 3 3 4 4 4 4 4 5 5 5 6 5 6 5 5 5 5 5 6 6 5 5 5 5 5 5 5 5
Wind_Direction
54 41 53 95 142 149 146 141 137 134 136 142 147 146 144 148 150 149 144 141 141 139 136 132 129 127 122 118 114 110 107 105 103 101 96 93 95 98 97 96 103 94 88
25 55 70 92 130 144 149 148 147 143 143 145 151 153 152 152 156 157 153 148 147 146 141 138 136 133 127 123 119 117 114 111 108 103 107 108 101 102 100 88 70 91 93
58 74 85 75 99 124 139 148 153 155 156 158 158 159 159 161 159 162 162 156 153 148 146 143 141 138 133 131 128 125 121 119 116 119 156 125 113 109 106 102 98 100 97
58 73 76 67 74 93 109 125 145 159 168 171 170 171 169 169 170 169 170 165 162 156 152 149 146 143 140 138 137 134 129 126 127 169 153 117 118 115 115 111 106 103 100
72 71 71 62 66 68 79 107 124 150 172 178 179 180 181 181 179 177 173 173 168 163 159 155 152 151 149 148 147 144 139 137 150 189 125 124 119 121 120 114 109 107 105
64 66 69 54 60 58 58 62 87 142 170 180 187 194 193 192 191 184 177 173 172 169 168 166 163 159 157 157 157 154 150 154 184 154 142 137 128 127 129 122 117 116 113
58 51 61 46 45 43 44 45 37 35 191 208 206 206 206 204 203 196 184 178 176 176 174 174 171 167 164 166 165 162 159 176 195 152 150 141 128 136 144 139 136 127 121
54 46 53 46 36 31 29 25 17 2 354 299 244 228 219 216 211 204 198 190 186 186 184 182 178 175 174 174 172 168 166 192 193 169 163 151 136 157 157 151 147 139 133
46 38 35 29 35 31 21 14 4 352 338 322 295 271 246 229 221 214 205 201 198 196 194 189 187 184 184 181 175 170 171 200 208 180 174 163 152 176 170 164 163 157 152
37 28 20 16 9 360 3 11 358 345 328 312 301 293 268 237 224 221 214 207 203 201 200 197 194 193 190 185 178 172 172 196 209 189 190 158 169 187 179 178 177 173 168
28 19 12 7 2 351 339 339 320 310 307 278 254 253 249 232 224 216 220 209 205 203 203 201 199 197 192 187 181 174 182 209 204 202 197 153 188 197 192 190 189 186 181
15 8 5 1 355 347 338 326 305 291 278 266 262 250 246 246 240 237 209 207 209 206 205 204 201 197 202 197 183 184 206 212 208 205 188 170 203 206 202 198 197 193 191
5 2 359 352 347 343 333 323 311 300 290 274 267 257 253 247 244 237 221 205 212 210 212 204 203 206 210 207 198 202 213 211 212 208 190 183 210 213 211 207 203 201 202
2 359 356 348 343 339 330 319 308 299 295 288 276 265 256 248 244 241 235 223 219 216 216 214 213 211 214 214 212 211 211 212 215 215 193 183 211 218 218 214 210 208 209
3 358 353 347 342 336 327 315 305 299 295 292 283 271 259 250 246 240 242 236 229 226 219 219 218 216 215 217 218 218 216 216 216 216 199 187 208 219 221 220 218 215 214
359 352 347 343 339 333 324 315 307 301 293 290 283 278 265 253 251 246 242 240 237 232 229 224 221 220 219 219 222 221 221 220 221 220 221 197 203 217 223 224 224 223 219
349 344 340 338 338 332 325 316 306 296 290 286 283 282 274 263 255 248 243 239 239 235 231 230 225 221 221 218 225 228 227 225 223 223 223 220 209 209 219 226 227 228 226
339 337 336 337 336 332 326 314 303 296 290 283 281 279 277 270 262 254 248 242 241 238 230 228 225 218 218 218 222 222 227 228 227 226 224 221 221 217 211 218 226 229 229
334 333 335 336 336 331 325 312 302 295 289 284 281 279 278 273 266 257 254 254 246 239 232 228 225 221 219 219 223 224 223 225 228 225 226 225 223 222 223 204 212 225 229
331 331 333 334 335 329 322 313 306 295 289 284 283 283 282 276 269 260 256 255 248 240 235 230 227 222 224 222 224 228 226 225 226 224 225 225 223 223 226 225 216 216 222
332 332 330 332 333 331 328 323 315 310 303 292 285 284 283 280 271 259 256 255 249 239 237 236 231 225 223 219 222 229 232 229 227 224 221 223 223 224 225 227 226 226 216
323 328 327 327 326 326 322 315 301 303 301 299 291 287 287 281 272 265 256 252 251 245 239 237 233 229 225 218 219 218 225 226 223 225 222 222 226 225 226 227 227 227 230
317 322 320 320 319 319 318 311 304 298 289 290 298 297 299 293 282 275 266 261 255 247 243 238 233 233 226 221 221 220 217 224 220 215 223 222 223 224 226 225 228 230 230
311 320 320 321 318 319 318 313 312 305 299 298 299 297 300 295 292 284 273 266 258 250 249 243 235 235 231 226 221 230 240 249 228 222 216 219 225 229 230 229 229 229 231
308 317 322 322 321 323 319 315 311 305 298 295 298 298 302 305 305 303 290 279 267 257 253 247 240 234 232 232 227 224 232 238 236 237 234 225 225 228 230 231 235 232 231
312 320 322 323 326 329 324 318 310 306 300 295 296 300 303 307 309 309 299 285 275 269 261 249 241 235 235 236 236 231 225 224 221 231 237 234 236 234 234 233 232 234 236